Home > Weather > Sunrise > Past weeks

Flag for U.S.A. Weather for the Past 2 Weeks in Sunrise, Florida, U.S.A.

Now
54 °F

Clear.


Feels Like: 52 °F
Forecast: 42 / 66 °F
Wind: 8 mph from Northwest

Location: Fort Lauderdale Executive Airport

Current Time: Feb 11, 2016 at 12:12:54 AM

Latest Report: Feb 10, 2016 at 10:53 PM


Visibility: 10 mi

Pressure: 30.28 "Hg

Humidity: 69%

Dew point: 44 °F

Location of SunriseLocation

Historic Weather in Sunrise — Graph

°F

Sunrise Temperature Yesterday

Maximum temperature yesterday: 61 °F (at 1:53 PM)
Minimum temperature yesterday: 53 °F (at 6:53 AM)
Average temperature yesterday: 58 °F

High & Low Weather Summary for the Past Weeks

 TemperatureHumidityPressure
High80 °F (Feb 3, 2:53 PM)100% (Jan 28, 5:53 AM)30.27 "Hg (Jan 28, 5:53 AM)
Low45 °F (Feb 8, 4:53 AM)32% (Feb 7, 4:53 PM)29.78 "Hg (Jan 28, 3:53 PM)
Average66 °F74%30.06 "Hg
* Reported Jan 26 10:53 PM — Feb 10 9:53 PM, Sunrise, Weather by CustomWeather, © 2016

Note: Actual official high and low records may vary slightly from our data, if they occured in-between our weather recording intervals... More about our weather records

Advertising

Sunrise Weather History for the Previous 24 Hours

 ConditionsComfort  
Time TempWeatherWind HumidityBarometerVisibility
9:53 PM
Wed, Feb 10
56 °FClear.12 mph65%30.27 "Hg10 mi
8:53 PM58 °FClear.10 mph58%30.25 "Hg10 mi
7:53 PM59 °FClear.7 mph56%30.24 "Hg10 mi
6:53 PM57 °FClear.6 mph60%30.21 "Hg10 mi
5:53 PM59 °FSunny.6 mph49%30.20 "Hg10 mi
4:53 PM61 °FScattered clouds.7 mph42%30.20 "Hg10 mi
3:53 PM61 °FSunny.10 mph39%30.19 "Hg10 mi
2:53 PM61 °FPartly sunny.10 mph39%30.19 "Hg10 mi
1:53 PM61 °FPartly sunny.7 mph36%30.19 "Hg10 mi
12:53 PM59 °FPartly sunny.7 mph39%30.23 "Hg10 mi
11:53 AM59 °FPartly sunny.5 mph41%30.25 "Hg10 mi
10:53 AM58 °FPassing clouds.9 mph41%30.26 "Hg10 mi
9:53 AM57 °FSunny.8 mph42%30.26 "Hg10 mi
8:53 AM56 °FBroken clouds.6 mph55%30.24 "Hg10 mi
7:53 AM53 °FPartly sunny.7 mph66%30.20 "Hg10 mi
6:53 AM53 °FPassing clouds.5 mph69%30.19 "Hg10 mi
5:53 AM54 °FClear.3 mph72%30.16 "Hg10 mi
4:53 AM54 °FClear.5 mph72%30.13 "Hg10 mi
3:53 AM56 °FPassing clouds.6 mph67%30.12 "Hg10 mi
2:53 AM59 °FOvercast.10 mph60%30.11 "Hg10 mi
1:53 AM59 °FOvercast.6 mph72%30.11 "Hg10 mi
12:53 AM57 °FPassing clouds.6 mph78%30.10 "Hg10 mi
Weather by CustomWeather, © 2016

See weather overviewHow to use our weather pages